Погода в Молодёжном

Россия / Томская область     59°55′29″N   81°43′15″E
темп.,
°C
ветер,
м/с
пор.,
м/с
влажн.,
%
обл.,
%
осадки,
мм/ч
давл.,
гПа
погр.,
м
6 марта, сб
сб601:00−6юз4994100 1.0 1002496
04:00−8ююз389691 0.1 1003271
07:00−12ююв239882 0.1 100379
10:00−8ююв3895100 0.1 1001296
13:00−3ююв3696100 0.7 998439
16:00−2ю4895100 1.3 996680
19:00−4ю2796100 1.6 994278
22:00−5юв2597100 0.4 993189
7 марта, вс
вс701:00−5ююз3897100 1.3 995372
04:00−6з71392100 0.8 9971018
07:00−10зюз51291100 1.1 1000649
10:00−11зюз51191100 0.1 1002677
13:00−9зюз51091100 0.3 1005779
16:00−7з5990100 0.2 1008913
19:00−9зюз3994100 0.4 1011451
22:00−11зюз3109496 0.2 1014351
8 марта, пн
пн801:00−16юз239889 0.2 101583
04:00−17ю239881 0.0 101648
07:00−15юв379690 0.0 1014203
10:00−12юв51095100 0.3 1009429
13:00−9юв61294100 2.1 1003758
16:00−7юв61395100 3.0 996708
19:00−1ю61396100 6.4 9901142
22:00−1ююз61296100 2.7 9871076
9 марта, вт
вт901:00−7з101792100 4.6 991903
04:00−11з81587100 0.6 9991086
07:00−15з71490100 0.7 1006635
10:00−17з51192100 0.0 1012499
13:00−15зюз599199 0.0 1015572
16:00−13юз4789100 0.0 1016721
19:00−15ю2295100 0.1 101723
22:00−13ююв399696 0.1 1015316
10 марта, ср
ср1001:00−11ююв5119597 0.3 1011567
04:00−10ю61393100 1.4 1006763
07:00−11ююз61292100 2.5 1004842
10:00−12ююз51292100 0.1 1003648
13:00−10юз61191100 0.3 1003792
16:00−7зюз61190100 0.3 10041265
19:00−8юз3990100 0.4 1006435
22:00−11ююз2396100 0.0 100776